Powrót do katalogu

SL-12 DEB

LostHEO
NORAD 25803·DEBRIS·🇷🇺 Russia

Wystrzelony Sep 16, 1987 z Baikonur Cosmodrome

Loading…

Następne Przeloty (najbliższe 24 godziny)

TLE

NieaktualneSource: Space-Track

Epoka: Apr 15, 2016, 11:06 UTC

1 25803U 87079N   16106.46317271  .00002606  00000-0  94342-3 0  9993
2 25803  64.8295 121.1891 5131789  40.0895 348.3757  5.33888755350554

Śledź SL-12 DEB w czasie rzeczywistym z AllMySat

Download on the App Store